Location: Northcutt
(34.7304°N, 84.4305°W)
Time: 19:27:14
(UTC+00:00)

Transit 2A Rocket - Pass Details

Date: 06 October 2022
Orbit: 589 x 911 km, 66.7° (Epoch: 03 December)

Event Time Altitude Azimuth Distance (km) Brightness Sun altitude
Rises 18:39:55 0° 346° (NNW) 3,041 7.8 46.3°
Reaches altitude 10° 18:42:30 10° 359° (N) 2,177 7.1 46.0°
Maximum altitude 18:46:41 26° 56° (ENE) 1,429 6.3 45.6°
Drops below altitude 10° 18:51:10 10° 113° (ESE) 2,350 7.6 45.2°
Sets 18:54:03 0° 125° (SE) 3,335 8.3 44.9°
